Location: Bayport
(40.7384°N, 73.0507°W)
Time: 03:08:23
(UTC+00:00)

Daily predictions for brighter satellites

Satellite Brightness Start Highest point End
(mag) Time Altitude Azimuth Time Altitude Azimuth Time Altitude Azimuth
Cosmos 1536 Rocket 4.1 00:01:44 10° N 00:05:55 39° ENE 00:08:22 21° SE
Cosmos 372 Rocket 4.1 00:01:41 10° SSW 00:06:56 82° WNW 00:12:11 10° NNE
Cosmos 2263 Rocket 4.1 00:03:52 10° WSW 00:08:48 32° WNW 00:13:47 10° N
Cosmos 1464 Rocket 3.9 00:03:08 10° S 00:09:14 81° E 00:15:25 10° N
Cosmos 1844 3.9 00:04:36 10° S 00:09:59 45° ESE 00:15:21 10° NE
Cosmos 1025 Rocket 3.0 00:06:47 10° N 00:11:08 61° E 00:14:52 14° SSE
USA 186 2.1 00:11:48 40° E 00:12:12 42° ENE 00:15:16 10° N
BREEZE-M DEB (TANK) 3.3 00:09:53 10° SW 00:12:51 84° SE 00:21:51 10° NE
Cosmos 1844 Rocket 2.6 00:09:17 10° S 00:14:45 62° ESE 00:20:16 10° NNE
Cosmos 1867 3.6 00:11:13 10° NW 00:16:42 80° WSW 00:21:02 16° SSE
ISS -2.0 00:17:26 10° W 00:20:26 29° NNW 00:22:47 14° NNE
Cosmos 2151 Rocket 3.5 00:17:36 10° S 00:22:02 80° E 00:26:32 10° N
USA 234 3.5 00:17:21 10° ENE 00:23:33 44° SE 00:29:43 10° SSW
Cosmos 2150 Rocket 4.0 00:21:14 10° SSW 00:26:35 88° WNW 00:32:04 10° NNE
MetOp-A 4.3 00:26:18 30° SE 00:28:43 52° ENE 00:33:55 10° N
Cosmos 1125 Rocket 3.4 00:25:40 10° S 00:30:54 67° ESE 00:36:12 10° NNE
MOS 1 4.3 00:27:57 25° SE 00:31:17 62° ENE 00:36:55 10° N
CZ-2C R/B 2.1 00:29:39 10° WSW 00:32:43 28° S 00:32:43 28° S
DMSP B5D2-2 4.0 00:31:40 10° NNE 00:36:57 67° ESE 00:42:11 10° S
NOSS 3-2 (C) 4.3 00:31:25 10° NNW 00:38:50 54° NE 00:42:21 34° ESE
Exosat Rocket 3.5 00:33:06 10° SSW 00:38:57 71° ESE 00:43:56 10° NNE
Cosmos 1833 Rocket 4.5 00:36:46 10° NNE 00:40:10 16° NE 00:40:10 16° NE
NOSS 3-4 (A) 3.6 00:35:08 10° S 00:40:37 44° ESE 00:42:16 36° ENE
NOSS 3-4 (C) 3.6 00:35:16 10° S 00:40:44 43° ESE 00:41:56 38° E
Meteor 1-15 Rocket 4.2 00:48:09 10° SSW 00:53:46 81° W 00:59:30 10° N
Cosmos 1674 2.9 00:50:43 10° N 00:54:01 64° NNW 00:54:01 64° NNW
Cosmos 1805 4.1 00:57:53 41° N 00:57:53 41° N 01:00:31 10° N
Resurs 01 Rocket 2.9 00:59:14 28° NNE 00:59:14 28° NNE 01:01:47 10° N
H-2A R/B 3.9 00:54:08 10° SSW 00:58:20 28° W 01:02:39 10° NW
Cosmos 1048 Rocket 4.2 00:56:02 10° NNW 01:01:20 68° WSW 01:03:09 41° S
Nadezhda 4 Rocket 4.3 00:56:43 10° NNW 01:02:45 63° W 01:07:55 14° S
ATLAS 2AS CENTAUR R/B 2.9 00:55:24 10° SSW 01:03:08 63° ESE 01:10:57 10° NE
BREEZE-M TANK 3.2 00:56:16 10° W 01:04:32 61° NNW 01:05:15 52° NNE
CENTAUR R/B 3.1 01:03:26 10° NNW 01:11:41 75° NE 01:14:15 50° SE
Cosmos 1269 Rocket 4.5 01:11:08 10° NNW 01:15:25 50° NNE 01:15:25 50° NNE
Okean 1 Rocket 3.6 01:16:18 54° WSW 01:16:42 57° W 01:21:08 10° N
Ariane Rocket 4.1 01:16:43 24° SSW 01:19:11 40° W 01:23:58 10° NNW
ATLAS 3B R/B 3.6 01:13:37 10° NNW 01:19:44 33° NE 01:20:03 33° NE
OBJECT-B 3.7 01:23:19 16° NNW 01:23:19 16° NNW 01:24:04 10° NNW
Cosmos 2082 Rocket 4.0 01:21:00 10° N 01:23:32 18° NNE 01:23:32 18° NNE
Cosmos 494 Rocket 4.3 01:21:35 10° NNW 01:26:48 62° WSW 01:26:49 62° WSW
USA 238 DEB 4.1 01:20:06 10° NW 01:27:17 64° WSW 01:29:18 48° S
USA 238 4.1 01:20:12 10° NW 01:27:24 65° WSW 01:29:22 49° S
Meteor 2-5 Rocket 3.8 01:21:55 10° NNW 01:27:35 75° W 01:27:52 73° SW
Meteor 1-22 Rocket 4.3 01:32:16 77° WSW 01:32:28 78° W 01:38:31 10° N
CZ-2C R/B 4.2 01:28:58 10° N 01:33:56 35° WNW 01:38:56 10° SW
Cosmos 1634 Rocket 4.2 01:37:17 44° SW 01:39:08 64° W 01:45:18 10° N
COSMOS 2406 4.0 01:34:18 10° NNW 01:38:13 41° N 01:38:13 41° N
SPOT 3 Rocket 4.3 01:44:55 50° WNW 01:44:55 50° WNW 01:49:14 10° NNW
Meteor 1-24 Rocket 4.1 01:39:51 10° NNW 01:44:32 60° NW 01:44:32 60° NW
USA 234 3.7 02:04:41 42° NNE 02:06:38 56° NW 02:12:59 10° WSW
Lacrosse 5 rocket 4.5 02:05:42 10° N 02:06:10 11° N 02:06:10 11° N
Cosmos 1833 Rocket 4.3 02:19:10 10° NNW 02:21:52 29° NNW 02:21:52 29° NNW
ATLAS 2AS CENTAUR R/B 4.2 02:47:22 10° WSW 02:54:36 37° NW 03:01:47 10° NNE
ATLAS 3B R/B 4.2 03:03:59 10° NW 03:07:18 30° NW 03:07:18 30° NW
Cosmos 1697 Rocket 4.4 07:06:50 29° NE 07:06:50 29° NE 07:09:33 10° NNE
Cosmos 1980 Rocket 3.7 07:10:59 32° ENE 07:10:59 32° ENE 07:14:27 10° NE
ADEOS II 3.7 07:25:48 10° N 07:28:11 28° N 07:28:11 28° N
ARIANE 5 R/B 3.8 07:29:09 10° NNE 07:32:21 37° NE 07:32:21 37° NE
CZ-3B R/B 4.4 07:37:59 19° NNE 07:37:59 19° NNE 07:40:25 10° NE
Nadezhda 3 Rocket 4.4 07:41:12 54° N 07:41:12 54° N 07:45:50 10° N
IDEFIX/ARIANE 42P 3.5 07:34:53 10° NNE 07:39:15 46° ENE 07:39:15 46° ENE
SJ 16-02 3.7 07:47:47 10° N 07:51:16 22° ENE 07:54:44 10° ESE
Cosmos 44 4.5 07:54:55 36° NE 07:54:55 36° NE 07:57:40 10° NNE
Cosmos 1238 Rocket 4.3 07:50:58 10° N 07:57:30 64° E 08:00:20 32° SSE
H-2A R/B 4.1 07:55:33 10° SE 07:59:16 28° ENE 08:03:04 10° N
Lacrosse 5 3.2 08:06:13 31° NNW 08:06:13 31° NNW 08:09:55 10° NNE
CZ-2D R/B 4.5 08:03:41 10° NNW 08:04:03 11° NNW 08:04:03 11° NNW
Cosmos 2278 4.0 08:08:13 56° NNW 08:08:13 56° NNW 08:13:06 10° NNE
X-37B 3.2 08:18:53 21° ENE 08:18:53 21° ENE 08:20:18 10° ENE
NOSS 3-3 (A) 3.7 08:19:03 71° SW 08:19:46 90° W 08:26:10 10° NE
NOSS 3-3 (C) 3.6 08:19:13 71° SSW 08:19:54 90° ESE 08:26:15 10° NE
USA 267 3.6 08:14:49 10° NE 08:21:05 50° NNW 08:22:28 44° WNW
Cosmos 1339 Rocket 4.4 08:29:39 38° SSW 08:32:17 82° W 08:38:32 10° N
Spot 4 Rocket 4.1 08:30:02 10° N 08:35:04 56° WNW 08:35:06 56° WNW
SL-8 R/B 3.9 08:39:54 42° NW 08:41:25 69° NNE 08:46:10 10° ESE
ADEOS Rocket 4.0 08:35:29 10° SE 08:42:03 50° ENE 08:47:59 10° N
Cosmos 921 Rocket 3.1 08:43:18 54° NW 08:43:18 54° NW 08:46:57 10° N
Cosmos 2360 Rocket 4.0 08:38:25 10° SSE 08:43:12 29° ESE 08:48:01 10° NE
Cosmos 1898 Rocket 4.3 08:39:32 10° N 08:44:41 52° ENE 08:49:50 10° SE
MSX 3.8 08:39:18 10° N 08:45:02 64° WNW 08:47:06 39° SW
CZ-4C R/B 3.7 08:47:18 45° NNW 08:47:18 45° NNW 08:49:53 10° NNW
Cosmos 1812 2.7 08:46:42 67° NW 08:46:42 67° NW 08:50:14 10° N
Cosmos 1500 3.6 08:44:38 10° NNW 08:47:33 48° NNW 08:47:33 48° NNW
Cosmos 1697 Rocket 4.3 08:48:35 19° NW 08:48:35 19° NW 08:52:21 10° N
IRIDIUM 104 4.3 08:43:19 10° N 08:48:35 84° E 08:53:47 10° S
Cosmos 1707 Rocket 3.9 08:49:22 14° S 08:53:03 63° E 08:57:21 10° NNE
Cosmos 1980 Rocket 3.1 08:52:46 30° WNW 08:53:16 30° WNW 08:58:13 10° N
Cosmos 1666 3.3 08:50:18 10° N 08:54:03 56° E 08:57:46 10° SSE
USA 234 3.2 08:48:02 10° SE 08:54:34 89° SW 09:01:09 10° NW
IRIDIUM 114 4.2 08:52:29 10° N 08:57:43 80° W 09:02:55 10° S
Cosmos 2322 Rocket 2.3 08:55:32 17° SSW 08:59:54 77° ESE 09:05:37 10° NNE
BREEZE-M DEB (TANK) 3.1 08:55:57 29° WSW 09:00:03 86° SSE 09:03:27 10° ENE
BREEZE-M DEB (TANK) 3.6 09:01:04 32° NW 09:01:51 37° N 09:07:36 10° ENE
Cosmos 2263 Rocket 2.1 08:56:31 10° NNW 09:02:10 71° WSW 09:07:48 10° SSE
USA 32 4.2 08:58:13 10° N 09:03:29 76° E 09:08:44 10° S
IRIDIUM 103 4.2 09:01:40 10° N 09:06:50 66° W 09:11:59 10° S
SL-16 R/B 2.1 09:05:31 22° SSW 09:09:12 73° WNW 09:14:54 10° NNE
Cosmos 2228 Rocket 4.0 09:09:42 29° WNW 09:09:42 29° WNW 09:13:21 10° NNW
SL-4 R/B 2.2 09:08:18 35° SW 09:10:15 89° NW 09:15:03 10° NE
Cosmos 1937 Rocket 3.9 09:05:08 10° NNW 09:10:15 63° ENE 09:15:19 10° SSE
FALCON 9 DEB 3.0 09:10:01 52° WSW 09:10:44 78° NW 09:14:11 10° NE
ARIANE 5 R/B 4.0 09:09:27 10° NNW 09:12:41 18° WNW 09:12:41 18° WNW
Cosmos 1733 Rocket 4.0 09:08:35 10° N 09:12:49 50° E 09:17:01 10° SSE
ADEOS 4.0 09:09:49 10° NNE 09:15:01 65° ESE 09:20:11 10° S
Meteor 1-4 Rocket 2.9 09:16:32 37° W 09:16:42 37° WNW 09:19:59 10° N
Cosmos 841 Rocket 3.8 09:11:41 10° S 09:16:51 67° ESE 09:22:04 10° NNE
Cosmos 44 Rocket 3.7 09:12:56 11° SSW 09:17:24 59° ESE 09:22:08 10° NE
Gbstr 26 Del rocket 4.4 09:10:18 10° NW 09:18:25 85° NE 09:25:28 10° SE
Cosmos 2173 Rocket 4.3 09:12:10 10° N 09:18:30 72° E 09:24:52 10° SSE
IDEFIX/ARIANE 42P 3.8 09:15:19 10° NNW 09:19:14 22° WNW 09:20:03 21° WNW
CZ-2C R/B 2.5 09:14:24 10° N 09:19:29 62° WNW 09:24:35 10° SSW
Cosmos 1869 Rocket 4.0 09:15:52 10° NNW 09:19:53 38° W 09:23:53 10° SSW
Cosmos 2227 4.4 09:15:53 10° NW 09:21:14 45° WSW 09:26:32 10° S
CZ-2C R/B 4.2 09:19:16 10° NNW 09:21:45 20° WNW 09:21:45 20° WNW
ERBS 3.8 09:22:46 21° NW 09:23:26 22° NW 09:26:10 10° NNE
Cosmos 1763 Rocket 3.7 09:21:34 18° SW 09:25:25 52° WNW 09:30:37 10° N
Cosmos 1862 Rocket 3.8 09:22:52 10° S 09:27:14 73° E 09:31:36 10° NNE
SJ-6F 4.3 09:24:57 10° N 09:29:04 80° WNW 09:33:07 10° SSW
SJ 16-02 2.0 09:25:58 10° NW 09:29:52 32° W 09:33:46 10° SSW
Intercosmos 25 4.3 09:25:50 10° S 09:30:09 49° E 09:33:25 10° NNE
PSLV R/B 4.1 09:28:02 10° N 09:31:53 36° WNW 09:34:43 16° SW
Cosmos 1743 4.0 09:29:38 10° N 09:33:17 43° E 09:36:55 10° SSE
Cosmos 2219 Rocket 4.4 09:28:58 10° SSE 09:33:38 27° ESE 09:38:20 10° NE
CZ-4B R/B 1.1 09:31:24 10° S 09:34:31 78° W 09:37:45 10° NNW
H-2A R/B 3.0 09:31:30 10° SSW 09:35:10 26° W 09:38:55 10° NW
DEBRIS 2.9 09:34:58 20° WNW 09:36:48 60° SSW 09:43:24 10° SE
Cosmos 2061 Rocket 4.5 09:32:19 10° N 09:38:45 69° E 09:45:08 10° SSE
Cosmos 1570 Rocket 4.0 09:33:51 10° SSW 09:39:09 79° WNW 09:44:31 10° NNE
PKM 4.3 09:37:45 10° NW 09:41:19 66° NE 09:45:33 10° SE
Cosmos 1689 Rocket 3.3 09:41:19 10° SSE 09:44:09 46° ENE 09:47:02 10° N
ERS-2 3.1 09:45:01 10° SSW 09:48:08 26° W 09:51:16 10° NW
Cosmos 2016 Rocket 4.1 09:43:07 10° N 09:49:15 83° E 09:55:21 10° S
Lacrosse 5 4.1 09:47:05 10° NW 09:49:41 14° NNW 09:52:18 10° NNE
Cosmos 2333 Rocket 3.7 09:44:23 10° S 09:49:45 41° ESE 09:55:07 10° NE
Okean 1 3.7 09:47:35 10° S 09:51:36 71° E 09:55:38 10° NNE
Cosmos 540 Rocket 3.5 09:47:01 10° SSW 09:52:06 58° WNW 09:57:14 10° NNE
Meteor 2-20 4.4 09:46:25 10° SSW 09:52:33 76° W 09:58:41 10° N
CZ-4B R/B 3.3 09:49:43 10° NNE 09:53:19 58° E 09:56:51 10° S
X-37B 0.6 09:51:10 11° WNW 09:54:10 88° NE 09:57:20 10° ESE
CZ-4B R/B 4.1 09:50:47 10° N 09:55:08 73° WNW 09:59:35 10° SSW
Cosmos 2322 4.2 09:52:34 10° S 09:58:08 64° ESE 10:03:44 10° NNE
ALOS 2.3 09:54:44 10° N 09:59:21 60° WNW 10:03:55 10° SSW
Cosmos 1484 Rocket 3.1 09:55:38 10° N 09:59:30 49° WNW 10:03:22 10° SSW
Meteor PRIRODA 4.3 09:56:29 10° NNE 10:00:06 60° E 10:03:42 10° S
COSMO-SKYMED 1 2.9 09:57:39 10° SSE 10:01:58 72° ENE 10:06:19 10° N
NOSS 3-4 (A) 3.9 09:57:12 10° NW 10:04:22 82° WSW 10:12:16 10° SSE
NOSS 3-4 (C) 3.9 09:57:18 10° NW 10:04:28 83° WSW 10:12:23 10° SSE
Cosmos 1536 3.8 10:03:39 10° NNW 10:07:02 26° W 10:10:24 10° SW
Cosmos 1725 Rocket 4.0 10:02:53 10° N 10:09:05 84° W 10:15:16 10° S
Cosmos 1864 Rocket 4.5 10:03:46 10° N 10:10:03 81° W 10:16:12 10° S
Meteor 1-31 Rocket 3.1 10:07:23 10° N 10:11:02 43° WNW 10:14:41 10° SW
Cosmos 1437 Rocket 2.9 10:09:52 10° SSW 10:13:32 50° WNW 10:17:17 10° N
Cosmos 2333 4.3 10:10:10 10° SSW 10:15:57 90° ESE 10:21:46 10° NNE
USA 281 4.3 10:12:33 10° NNE 10:18:55 51° ESE 10:25:16 10° S
